Regional Weather Roundup
Issued by NWS Nashville, TN

Home | Current Version | Previous Version | Text Only | Print | Product List | Glossary On
Versions: 1 2 3 4 5 6 7 8 9 10 11 12 13 14 15 16 17 18 19 20 21 22 23 24 25 26 27 28 29 30 31 32 33 34 35 36 37 38 39 40 41 42 43 44 45 46 47 48 49 50
000
ASUS44 KOHX 270015
RWROHX
MIDDLE TENNESSEE HOURLY WEATHER ROUNDUP
NATIONAL WEATHER SERVICE NASHVILLE TN
700 PM CDT THU MAR 26 2015

NOTE: "FAIR" INDICATES FEW OR NO CLOUDS BELOW 12,000 FEET WITH
NO SIGNIFICANT WEATHER AND/OR OBSTRUCTIONS TO VISIBILITY.

* THESE REPORTS ARE NOT UNDER NWS QUALITY CONTROL AND MAY NOT
  REPORT WEATHER SUCH AS PRECIPITATION AND FOG.


TNZ005>011-023>034-057-059-062>066-078-080-270100
...NORTHERN MIDDLE TENNESSEE...

CITY           SKY/WX    TMP DP  RH WIND       PRES   REMARKS
CLARKSVILLE    CLOUDY    42  38  85 N15       29.98R
CROSSVILLE     CLOUDY    46  41  82 N14G22    29.88R
GALLATIN       CLOUDY    45  43  93 N13       29.96R
LIVINGSTON     CLOUDY    45  43  93 NE10      29.93R
NASHVILLE      CLOUDY    45  42  89 N5        29.97R
PORTLAND       CLOUDY    41  39  93 N13       29.95R
SMYRNA         RAIN      45  43  93 N9        29.99R
SPARTA         CLOUDY    46  45  93 N8        29.90R
$$
TNZ056-058-060-061-075>077-079-093>097-270100
...SOUTHERN MIDDLE TENNESSEE...

CITY           SKY/WX    TMP DP  RH WIND       PRES   REMARKS
COLUMBIA       CLOUDY   N/A N/A N/A N6        29.94R
LEWISBURG      CLOUDY    45  42  89 N10       29.96R
MCMINNVILLE    CLOUDY    46  46 100 N15       29.91R
MURFREESBORO   CLOUDY    45  43  93 N9        29.96
SHELBYVILLE    CLOUDY    46  45  93 N17       29.94R
TULLAHOMA      CLOUDY    45  41  87 N14       29.92R
WINCHESTER     CLOUDY    48  46  93 N12       29.90R
$$


...KEY TO REMARKS...
VSB - VISIBILITY IN MILES
WCI - WIND CHILL INDEX
HX  - HEAT INDEX



USA.gov is the U.S. government's official web portal to all federal, state and local government web resources and services.